Salem, IL

3:13 AM CDT on April 29, 2017 (GMT -0500)
Salem-Leckrone

Weather History for KSLO - September, 2012

Change the Weather History Date:

Monday, September 24, 2012

  Actual Average Record
Temperature  
Mean Temperature 54 °F -  
Max Temperature 70 °F 74 °F 91 °F (2007)
Min Temperature 38 °F 50 °F 34 °F (1989)
Degree Days  
Heating Degree Days 11    
Growing Degree Days 4 (Base 50)    
Moisture  
Dew Point 36 °F    
Average Humidity 57    
Maximum Humidity 95    
Minimum Humidity 20    
Precipitation  
Precipitation 0.00 in - - ()
Sea Level Pressure  
Sea Level Pressure 30.17 in    
Wind  
Wind Speed 3 mph (South)    
Max Wind Speed 14 mph    
Max Gust Speed 18 mph    
Visibility 10 miles    
Events      
Averages and records for this station are not official NWS values.
T = Trace of Precipitation, MM = Missing Value Source: NWS Daily Summary

Daily Weather History Graph

Daily Weather History Graph

Search for Another Location

Airport or City:

Trip Planner

Search our weather history database for the weather conditions in past years. The results will help you decide how hot, cold, wet, or windy it might be!

Date:

Astronomy

Sep. 24, 2012 Rise Set
Actual Time 6:45 AM CDT 6:48 PM CDT
Civil Twilight 6:19 AM CDT 7:15 PM CDT
Nautical Twilight 5:48 AM CDT 7:46 PM CDT
Astronomical Twilight 5:16 AM CDT 8:17 PM CDT
Moon 3:31 PM CDT (9/24) 1:05 AM CDT (9/24)
Length of Visible Light 12h 56m
Length of Day
12h 03m
Waxing Gibbous, 71% of the Moon is Illuminated
Sep 24
Waxing Gibbous
Sep 29
Full
Oct 8
Last Quarter
Oct 15
New
Oct 21
First Quarter

Hourly Weather History & Observations

Time (CDT) Temp. Dew Point Humidity Pressure Visibility Wind Dir Wind Speed Gust Speed Precip Events Conditions
12:15 AM 42.4 °F 38.1 °F 85% 30.27 in 10.0 mi Calm Calm - N/A   Clear
12:35 AM 43.2 °F 40.1 °F 89% 30.26 in 10.0 mi Calm Calm - N/A   Clear
12:55 AM 42.8 °F 39.9 °F 90% 30.26 in 10.0 mi Calm Calm - N/A   Clear
1:15 AM 42.3 °F 39.0 °F 88% 30.27 in 10.0 mi Calm Calm - N/A   Clear
1:35 AM 40.6 °F 38.1 °F 91% 30.27 in 10.0 mi Calm Calm - N/A   Clear
1:55 AM 41.2 °F 38.8 °F 91% 30.26 in 10.0 mi Calm Calm - N/A   Clear
2:15 AM 40.6 °F 38.3 °F 91% 30.26 in 10.0 mi Calm Calm - N/A   Clear
2:35 AM 41.4 °F 39.2 °F 92% 30.26 in 10.0 mi Calm Calm - N/A   Clear
2:55 AM 41.0 °F 39.2 °F 93% 30.25 in 10.0 mi Calm Calm - N/A   Clear
3:15 AM 40.6 °F 38.7 °F 93% 30.25 in 10.0 mi Calm Calm - N/A   Clear
3:35 AM 41.0 °F 39.2 °F 93% 30.26 in 10.0 mi Calm Calm - N/A   Clear
3:55 AM 40.3 °F 38.5 °F 93% 30.26 in 10.0 mi Calm Calm - N/A   Clear
4:15 AM 40.6 °F 39.2 °F 95% 30.26 in 10.0 mi Calm Calm - N/A   Clear
4:35 AM 40.5 °F 38.8 °F 94% 30.26 in 10.0 mi Calm Calm - N/A   Clear
4:55 AM 38.7 °F 36.9 °F 93% 30.27 in 10.0 mi Calm Calm - N/A   Clear
5:15 AM 39.4 °F 37.6 °F 93% 30.27 in 10.0 mi Calm Calm - N/A   Clear
5:35 AM 40.1 °F 38.3 °F 93% 30.27 in 10.0 mi Calm Calm - N/A   Clear
5:55 AM 39.4 °F 37.8 °F 94% 30.27 in 10.0 mi Calm Calm - N/A   Clear
6:15 AM 39.6 °F 37.9 °F 94% 30.27 in 10.0 mi Calm Calm - N/A   Clear
6:35 AM 38.8 °F 37.4 °F 95% 30.27 in 10.0 mi Calm Calm - N/A   Clear
6:55 AM 39.7 °F 38.3 °F 95% 30.27 in 10.0 mi Calm Calm - N/A   Clear
7:15 AM 38.8 °F 37.4 °F 95% 30.27 in 10.0 mi Calm Calm - N/A   Clear
7:35 AM 40.6 °F 39.4 °F 95% 30.27 in 10.0 mi Calm Calm - N/A   Clear
7:55 AM 44.2 °F 42.8 °F 95% 30.27 in 10.0 mi Calm Calm - N/A   Clear
8:15 AM 47.8 °F 42.1 °F 80% 30.26 in 10.0 mi Calm Calm - N/A   Clear
8:35 AM 50.7 °F 41.5 °F 71% 30.26 in 10.0 mi Calm Calm - N/A   Clear
8:55 AM 53.6 °F 40.8 °F 62% 30.26 in 10.0 mi Calm Calm - N/A   Clear
9:15 AM 56.8 °F 41.4 °F 56% 30.26 in 10.0 mi SSW 5.8 mph - N/A   Clear
9:35 AM 59.0 °F 39.2 °F 48% 30.26 in 10.0 mi South 8.1 mph - N/A   Clear
9:55 AM 61.0 °F 38.3 °F 43% 30.25 in 10.0 mi SSW 6.9 mph - N/A   Clear
10:15 AM 62.6 °F 34.9 °F 36% 30.25 in 10.0 mi SSW 9.2 mph - N/A   Clear
10:35 AM 63.9 °F 33.4 °F 32% 30.24 in 10.0 mi South 6.9 mph - N/A   Clear
10:55 AM 64.4 °F 31.8 °F 30% 30.24 in 10.0 mi South 10.4 mph - N/A   Clear
11:15 AM 65.3 °F 31.5 °F 28% 30.24 in 10.0 mi SSW 10.4 mph - N/A   Clear
11:35 AM 66.0 °F 30.2 °F 26% 30.23 in 10.0 mi South 10.4 mph - N/A   Clear
11:55 AM 65.8 °F 28.4 °F 25% 30.22 in 10.0 mi SSE 8.1 mph - N/A   Clear
12:15 PM 66.6 °F 29.1 °F 25% 30.22 in 10.0 mi SSE 11.5 mph - N/A   Clear
12:35 PM 67.5 °F 29.8 °F 25% 30.21 in 10.0 mi South 8.1 mph 16.1 mph N/A   Clear
12:55 PM 68.2 °F 29.8 °F 24% 30.20 in 10.0 mi South 10.4 mph - N/A   Clear
1:15 PM 68.0 °F 28.8 °F 23% 30.19 in 10.0 mi South 8.1 mph - N/A   Clear
1:35 PM 68.9 °F 27.7 °F 21% 30.17 in 10.0 mi South 9.2 mph - N/A   Clear
1:55 PM 69.4 °F 28.6 °F 22% 30.16 in 10.0 mi SSW 11.5 mph 18.4 mph N/A   Clear
2:15 PM 69.6 °F 28.0 °F 21% 30.15 in 10.0 mi South 9.2 mph 17.3 mph N/A   Clear
2:35 PM 69.6 °F 28.8 °F 22% 30.13 in 10.0 mi South 13.8 mph - N/A   Clear
2:55 PM 70.0 °F 27.0 °F 20% 30.12 in 10.0 mi South 10.4 mph - N/A   Clear
3:15 PM 70.7 °F 30.2 °F 22% 30.10 in 10.0 mi South 10.4 mph - N/A   Clear
3:35 PM 70.0 °F 30.2 °F 23% 30.09 in 10.0 mi South 8.1 mph - N/A   Clear
3:55 PM 70.2 °F 30.2 °F 23% 30.08 in 10.0 mi SSE 8.1 mph - N/A   Clear
4:15 PM 69.6 °F 29.5 °F 22% 30.06 in 10.0 mi South 9.2 mph 16.1 mph N/A   Clear
4:35 PM 69.8 °F 29.5 °F 22% 30.05 in 10.0 mi SSE 10.4 mph - N/A   Clear
4:55 PM 69.8 °F 31.6 °F 24% 30.05 in 10.0 mi South 9.2 mph - N/A   Clear
5:15 PM 69.1 °F 32.0 °F 25% 30.03 in 10.0 mi South 11.5 mph - N/A   Clear
5:35 PM 68.2 °F 32.7 °F 27% 30.03 in 10.0 mi South 8.1 mph - N/A   Clear
5:55 PM 67.1 °F 34.9 °F 30% 30.03 in 10.0 mi South 5.8 mph - N/A   Clear
6:55 PM 63.3 °F 39.0 °F 41% 30.02 in 10.0 mi South 4.6 mph - N/A   Clear
7:15 PM 62.8 °F 39.0 °F 42% 30.01 in 10.0 mi SSE 3.5 mph - N/A   Clear
7:55 PM 61.5 °F 40.8 °F 47% 30.01 in 10.0 mi SSE 3.5 mph - N/A   Mostly Cloudy
8:15 PM 62.4 °F 40.3 °F 44% 30.02 in 10.0 mi South 4.6 mph - N/A   Overcast
8:35 PM 61.0 °F 41.0 °F 48% 30.02 in 10.0 mi South 3.5 mph - N/A   Scattered Clouds
8:55 PM 59.9 °F 41.5 °F 51% 30.03 in 10.0 mi Calm Calm - N/A   Clear
9:15 PM 57.7 °F 42.8 °F 57% 30.03 in 10.0 mi SE 3.5 mph - N/A   Clear
9:35 PM 58.8 °F 41.5 °F 53% 30.02 in 10.0 mi SE 4.6 mph - N/A   Clear
9:55 PM 58.6 °F 41.0 °F 52% 30.02 in 10.0 mi SE 4.6 mph - N/A   Clear
10:15 PM 58.5 °F 40.5 °F 51% 30.02 in 10.0 mi Calm Calm - N/A   Clear
10:35 PM 57.4 °F 40.8 °F 54% 30.02 in 10.0 mi ESE 3.5 mph - N/A   Clear
10:55 PM 57.6 °F 40.8 °F 54% 30.01 in 10.0 mi SE 4.6 mph - N/A   Clear
11:15 PM 56.7 °F 41.5 °F 57% 30.01 in 10.0 mi SSE 3.5 mph - N/A   Clear
11:55 PM 57.2 °F 41.7 °F 56% 30.00 in 10.0 mi SSE 5.8 mph - N/A   Clear